| time (UTC) | temp F | wind direction | speed MPH | gust MPH | rain 1hr in | rain 24hr in | rain mn in | humidity % | barometer mb |
| 20260505014002 | 65 | 59 | 2.0 | 3.0 | 0.00 | 0.00 | 0.00 | 55 | 1027.4 |
| 20260505013023 | 65 | 43 | 2.0 | 3.0 | 0.00 | 0.00 | 0.00 | 55 | 1027.5 |
| 20260505012003 | 64 | 88 | 2.0 | 6.0 | 0.00 | 0.00 | 0.00 | 57 | 1027.5 |
| 20260505011024 | 64 | 98 | 2.0 | 6.0 | 0.00 | 0.00 | 0.00 | 58 | 1027.5 |
| 20260505010003 | 63 | 63 | 3.0 | 5.0 | 0.00 | 0.00 | 0.00 | 59 | 1027.6 |
| 20260505005002 | 62 | 82 | 2.0 | 5.0 | 0.00 | 0.00 | 0.00 | 60 | 1027.7 |
| 20260505004002 | 61 | 31 | 2.0 | 3.0 | 0.00 | 0.00 | 0.00 | 61 | 1027.6 |
| 20260505003002 | 60 | 56 | 3.0 | 7.0 | 0.00 | 0.00 | 0.00 | 62 | 1027.5 |
| 20260505002002 | 59 | 82 | 2.0 | 5.0 | 0.00 | 0.00 | 0.00 | 65 | 1027.4 |
| 20260505001002 | 58 | 72 | 2.0 | 5.0 | 0.00 | 0.00 | 0.00 | 67 | 1027.1 |
| 20260505000024 | 57 | 79 | 4.0 | 6.0 | 0.00 | 0.00 | 0.00 | 68 | 1026.9 |
| 20260504235002 | 57 | 83 | 5.0 | 8.0 | 0.00 | 0.00 | 0.00 | 69 | 1026.9 |
| 20260504234002 | 56 | 65 | 3.0 | 5.0 | 0.00 | 0.00 | 0.00 | 71 | 1026.8 |
| 20260504233001 | 55 | 35 | 3.0 | 8.0 | 0.00 | 0.00 | 0.00 | 73 | 1026.7 |
| 20260504232002 | 54 | 102 | 4.0 | 12.0 | 0.00 | 0.00 | 0.00 | 75 | 1026.6 |
| 20260504231002 | 55 | 6 | 3.0 | 6.0 | 0.00 | 0.00 | 0.00 | 74 | 1026.6 |
| 20260504230002 | 55 | 71 | 1.0 | 3.0 | 0.00 | 0.00 | 0.00 | 71 | 1026.5 |
| 20260504225002 | 56 | 80 | 3.0 | 8.0 | 0.00 | 0.00 | 0.00 | 71 | 1026.3 |
| 20260504224002 | 56 | 5 | 3.0 | 8.0 | 0.00 | 0.00 | 0.00 | 71 | 1026.0 |
| 20260504223002 | 56 | 48 | 2.0 | 5.0 | 0.00 | 0.00 | 0.00 | 70 | 1026.0 |
| 20260504222002 | 56 | 103 | 3.0 | 7.0 | 0.00 | 0.00 | 0.00 | 70 | 1025.9 |
| 20260504220002 | 56 | 66 | 2.0 | 6.0 | 0.00 | 0.00 | 0.00 | 71 | 1025.8 |
| 20260504215002 | 56 | 23 | 2.0 | 6.0 | 0.00 | 0.00 | 0.00 | 70 | 1025.7 |
| 20260504214002 | 57 | 79 | 3.0 | 5.0 | 0.00 | 0.00 | 0.00 | 70 | 1025.6 |
| 20260504213002 | 57 | 16 | 2.0 | 6.0 | 0.00 | 0.00 | 0.00 | 70 | 1025.7 |
| 20260504212002 | 57 | 68 | 4.0 | 9.0 | 0.00 | 0.00 | 0.00 | 70 | 1025.8 |
| 20260504211002 | 57 | 88 | 5.0 | 9.0 | 0.00 | 0.00 | 0.00 | 70 | 1025.9 |
| 20260504210003 | 57 | 76 | 3.0 | 6.0 | 0.00 | 0.00 | 0.00 | 70 | 1025.9 |
| 20260504205002 | 57 | 67 | 3.0 | 7.0 | 0.00 | 0.00 | 0.00 | 70 | 1025.9 |
| 20260504204002 | 57 | 88 | 2.0 | 5.0 | 0.00 | 0.00 | 0.00 | 69 | 1026.0 |
| 20260504203002 | 57 | 1 | 2.0 | 6.0 | 0.00 | 0.00 | 0.00 | 70 | 1025.9 |
| 20260504202003 | 57 | 41 | 5.0 | 9.0 | 0.00 | 0.00 | 0.00 | 69 | 1025.8 |
| 20260504201002 | 57 | 35 | 3.0 | 7.0 | 0.00 | 0.00 | 0.00 | 69 | 1025.8 |
| 20260504200002 | 57 | 91 | 3.0 | 7.0 | 0.00 | 0.00 | 0.00 | 69 | 1025.9 |
| 20260504194002 | 58 | 17 | 2.0 | 3.0 | 0.00 | 0.00 | 0.00 | 69 | 1025.9 |
| 20260504193003 | 58 | 69 | 3.0 | 5.0 | 0.00 | 0.00 | 0.00 | 68 | 1025.9 |
| 20260504192024 | 58 | 20 | 3.0 | 6.0 | 0.00 | 0.00 | 0.00 | 68 | 1025.9 |
| 20260504191002 | 58 | 66 | 3.0 | 6.0 | 0.00 | 0.00 | 0.00 | 68 | 1026.0 |
| 20260504190003 | 58 | 73 | 5.0 | 8.0 | 0.00 | 0.00 | 0.00 | 68 | 1026.1 |
| 20260504185002 | 59 | 100 | 1.0 | 3.0 | 0.00 | 0.00 | 0.00 | 67 | 1026.2 |
| 20260504184002 | 59 | 24 | 3.0 | 5.0 | 0.00 | 0.00 | 0.00 | 66 | 1026.2 |
| 20260504183002 | 59 | 33 | 3.0 | 5.0 | 0.00 | 0.00 | 0.00 | 66 | 1026.1 |
| 20260504181002 | 59 | 102 | 2.0 | 5.0 | 0.00 | 0.00 | 0.00 | 67 | 1026.1 |
| 20260504180002 | 58 | 79 | 3.0 | 5.0 | 0.00 | 0.00 | 0.00 | 68 | 1026.1 |
| 20260504175023 | 58 | 72 | 2.0 | 7.0 | 0.00 | 0.00 | 0.00 | 67 | 1026.3 |
| 20260504174003 | 58 | 95 | 2.0 | 6.0 | 0.00 | 0.00 | 0.00 | 67 | 1026.3 |
| 20260504173002 | 59 | 162 | 1.0 | 3.0 | 0.00 | 0.00 | 0.00 | 67 | 1026.2 |
| 20260504172002 | 59 | 232 | 1.0 | 2.0 | 0.00 | 0.00 | 0.00 | 65 | 1026.2 |
| 20260504171003 | 59 | 129 | 4.0 | 8.0 | 0.00 | 0.00 | 0.00 | 64 | 1026.3 |
| 20260504151003 | 59 | 128 | 2.0 | 6.0 | 0.00 | 0.00 | 0.00 | 65 | 1026.7 |
| 20260504141002 | 57 | 97 | 4.0 | 6.0 | 0.00 | 0.00 | 0.00 | 71 | 1026.9 |
| 20260504082002 | 71 | 179 | 1.0 | 3.0 | 0.00 | 0.00 | 0.00 | 52 | 1025.4 |
| 20260504081007 | 71 | 138 | 2.0 | 2.0 | 0.00 | 0.00 | 0.00 | 46 | 1025.5 |
| 20260504050023 | 70 | 168 | 2.0 | 3.0 | 0.00 | 0.00 | 0.00 | 49 | 1026.6 |
| 20260504045002 | 69 | 177 | 1.0 | 2.0 | 0.00 | 0.00 | 0.00 | 49 | 1026.7 |
| 20260504044003 | 69 | 132 | 3.0 | 6.0 | 0.00 | 0.00 | 0.00 | 49 | 1026.8 |
| 20260504043002 | 69 | 120 | 2.0 | 3.0 | 0.00 | 0.00 | 0.00 | 51 | 1027.0 |
| 20260504042003 | 68 | 20 | 3.0 | 7.0 | 0.00 | 0.00 | 0.00 | 51 | 1027.1 |
| 20260504041002 | 68 | 41 | 1.0 | 6.0 | 0.00 | 0.00 | 0.00 | 53 | 1027.3 |
| 20260504040002 | 68 | 86 | 3.0 | 7.0 | 0.00 | 0.00 | 0.00 | 52 | 1027.6 |
| 20260504035002 | 67 | 70 | 4.0 | 8.0 | 0.00 | 0.00 | 0.00 | 52 | 1027.8 |
| 20260504034002 | 67 | 101 | 3.0 | 7.0 | 0.00 | 0.00 | 0.00 | 53 | 1027.9 |
| 20260504033002 | 67 | 82 | 2.0 | 5.0 | 0.00 | 0.00 | 0.00 | 55 | 1028.1 |
| 20260504032007 | 66 | 108 | 4.0 | 8.0 | 0.00 | 0.00 | 0.00 | 55 | 1028.2 |
| 20260504031002 | 66 | 75 | 4.0 | 6.0 | 0.00 | 0.00 | 0.00 | 55 | 1028.2 |
| 20260504030002 | 65 | 85 | 5.0 | 9.0 | 0.00 | 0.00 | 0.00 | 55 | 1028.4 |
| 20260504025002 | 65 | 33 | 6.0 | 13.0 | 0.00 | 0.00 | 0.00 | 56 | 1028.5 |
| 20260504024002 | 65 | 24 | 5.0 | 9.0 | 0.00 | 0.00 | 0.00 | 57 | 1028.5 |
| 20260504023002 | 64 | 38 | 4.0 | 6.0 | 0.00 | 0.00 | 0.00 | 57 | 1028.5 |
| 20260504022023 | 64 | 43 | 4.0 | 6.0 | 0.00 | 0.00 | 0.00 | 58 | 1028.5 |
| 20260504021003 | 64 | 7 | 4.0 | 6.0 | 0.00 | 0.00 | 0.00 | 58 | 1028.5 |
| 20260504020002 | 64 | 53 | 3.0 | 6.0 | 0.00 | 0.00 | 0.00 | 60 | 1028.6 |
| 20260504015002 | 64 | 93 | 4.0 | 6.0 | 0.00 | 0.00 | 0.00 | 60 | 1028.6 |